Las Vegas, NM

1:56 AM MDT on June 25, 2017 (GMT -0600)
Las Vegas Municipal

Weather History for KLVS - June, 2013

Change the Weather History Date:

Wednesday, June 19, 2013

  Actual Average Record
Temperature  
Mean Temperature 72 °F -  
Max Temperature 90 °F 81 °F 94 °F (1981)
Min Temperature 55 °F 50 °F 39 °F (1973)
Cooling Degree Days 8    
Growing Degree Days 22 (Base 50)    
Moisture  
Dew Point 40 °F    
Average Humidity 48    
Maximum Humidity 89    
Minimum Humidity 4    
Precipitation  
Precipitation 0.00 in - - ()
Sea Level Pressure  
Sea Level Pressure 29.82 in    
Wind  
Wind Speed 14 mph (South)    
Max Wind Speed 39 mph    
Max Gust Speed 47 mph    
Visibility 9 miles    
Events      
Averages and records for this station are not official NWS values.
T = Trace of Precipitation, MM = Missing Value Source: NWS Daily Summary

Daily Weather History Graph

Daily Weather History Graph

Search for Another Location

Airport or City:

Trip Planner

Search our weather history database for the weather conditions in past years. The results will help you decide how hot, cold, wet, or windy it might be!

Date:

Astronomy

Jun. 19, 2013 Rise Set
Actual Time 5:44 AM MDT 8:19 PM MDT
Civil Twilight 5:14 AM MDT 8:49 PM MDT
Nautical Twilight 4:37 AM MDT 9:26 PM MDT
Astronomical Twilight 3:55 AM MDT 10:08 PM MDT
Moon 4:20 PM MDT (6/19) 2:24 AM MDT (6/19)
Length of Visible Light 15h 34m
Length of Day
14h 34m
Waxing Gibbous, 81% of the Moon is Illuminated
Jun 19
Waxing Gibbous
Jun 23
Full
Jun 29
Last Quarter
Jul 8
New
Jul 15
First Quarter

Hourly Weather History & Observations

Time (MDT) Temp. Dew Point Humidity Pressure Visibility Wind Dir Wind Speed Gust Speed Precip Events Conditions
12:53 AM 62.1 °F 51.1 °F 67% 29.82 in 10.0 mi South 9.2 mph - N/A   Clear
1:53 AM 62.1 °F 53.1 °F 72% 29.80 in 10.0 mi South 10.4 mph - N/A   Clear
2:53 AM 60.1 °F 52.0 °F 75% 29.79 in 10.0 mi South 8.1 mph - N/A   Mostly Cloudy
3:37 AM 59.0 °F 53.6 °F 82% 30.13 in 10.0 mi South 9.2 mph - N/A   Scattered Clouds
3:51 AM 60.8 °F 53.6 °F 77% 30.14 in 10.0 mi South 9.2 mph - N/A   Mostly Cloudy
3:53 AM 60.1 °F 54.0 °F 80% 29.79 in 10.0 mi South 8.1 mph - N/A   Mostly Cloudy
4:53 AM 59.0 °F 53.1 °F 81% 29.80 in 10.0 mi South 9.2 mph - N/A   Overcast
5:32 AM 55.4 °F 51.8 °F 88% 30.14 in 10.0 mi South 5.8 mph - N/A   Scattered Clouds
5:53 AM 55.0 °F 52.0 °F 89% 29.82 in 10.0 mi South 6.9 mph - N/A   Partly Cloudy
6:53 AM 57.0 °F 54.0 °F 89% 29.81 in 10.0 mi South 11.5 mph - N/A   Clear
7:53 AM 61.0 °F 55.0 °F 81% 29.82 in 10.0 mi SSE 9.2 mph - N/A   Clear
8:53 AM 66.0 °F 55.0 °F 68% 29.83 in 10.0 mi SSW 11.5 mph - N/A   Clear
9:53 AM 73.0 °F 48.9 °F 42% 29.79 in 10.0 mi SSW 13.8 mph 19.6 mph N/A   Clear
10:53 AM 80.1 °F 33.1 °F 18% 29.75 in 10.0 mi SSW 17.3 mph 24.2 mph N/A   Clear
11:53 AM 84.0 °F 25.0 °F 12% 29.73 in 10.0 mi SW 23.0 mph 33.4 mph N/A   Clear
12:53 PM 86.0 °F 25.0 °F 11% 29.72 in 10.0 mi SSW 17.3 mph 32.2 mph N/A   Clear
1:53 PM 86.0 °F 28.0 °F 12% 29.70 in 10.0 mi SSW 20.7 mph 36.8 mph N/A   Partly Cloudy
2:53 PM 86.0 °F 45.0 °F 24% 29.69 in 10.0 mi South 20.7 mph 26.5 mph N/A   Clear
3:17 PM 89.6 °F 12.2 °F 6% 30.05 in 10.0 mi SSW 20.7 mph 33.4 mph N/A   Clear
3:53 PM 90.0 °F 3.0 °F 4% 29.65 in 10.0 mi WSW 21.9 mph 35.7 mph N/A   Clear
4:53 PM 89.1 °F 1.9 °F 4% 29.65 in 10.0 mi SW 29.9 mph 34.5 mph N/A   Clear
5:53 PM 88.0 °F 7.0 °F 5% 29.65 in 10.0 mi SW 24.2 mph 27.6 mph N/A   Clear
6:18 PM 87.8 °F 6.8 °F 5% 30.00 in 10.0 mi West 11.5 mph - N/A   Clear
6:53 PM 87.1 °F 9.0 °F 5% 29.65 in 10.0 mi SSW 17.3 mph - N/A   Clear
7:24 PM 78.8 °F 53.6 °F 42% 30.02 in 6.0 mi SE 23.0 mph 29.9 mph N/A   Haze
7:51 PM 73.4 °F 50.0 °F 44% 30.03 in 5.0 mi SE 39.1 mph 46.0 mph N/A   Haze
7:53 PM 73.0 °F 48.9 °F 42% 29.70 in 4.0 mi SE 39.1 mph 47.2 mph N/A   Haze
8:53 PM 69.1 °F 53.1 °F 57% 29.72 in 7.0 mi SSE 34.5 mph 43.7 mph N/A   Overcast
9:53 PM 66.0 °F 54.0 °F 65% 29.76 in 10.0 mi South 26.5 mph 33.4 mph N/A   Overcast
10:53 PM 64.0 °F 55.0 °F 73% 29.78 in 10.0 mi SSW 19.6 mph - N/A   Overcast
11:53 PM 63.0 °F 53.1 °F 70% 29.78 in 10.0 mi South 18.4 mph - N/A   Clear